Regional Weather Roundup
Issued by NWS Little Rock, AR

Home | Current Version | Previous Version | Text Only | Print | Product List | Glossary On
Versions: 1 2 3 4 5 6 7 8 9 10 11 12 13 14 15 16 17 18 19 20 21 22 23 24 25 26 27 28 29 30 31 32 33 34 35 36 37 38 39 40 41 42 43 44 45 46 47 48 49 50
000
ASUS44 KLZK 220405
RWRLZK

WEATHER ROUNDUP FOR ARKANSAS
NATIONAL WEATHER SERVICE LITTLE ROCK AR
1000 PM CST SUN DEC 21 2014

NOTE: "FAIR" INDICATES FEW OR NO CLOUDS BELOW 12,000 FEET WITH NO
SIGNIFICANT WEATHER AND/OR OBSTRUCTIONS TO VISIBILITY.

ARZ001-003-010-029-220500-
NORTHWEST ARKANSAS

CITY           SKY/WX    TMP DP  RH WIND       PRES   REMARKS
FAYETTEVILLE   CLOUDY    45  40  82 S7        29.82F
FORT SMITH     CLOUDY    47  40  76 E6        29.83F
HARRISON       CLOUDY    44  36  73 SE10      29.84F
BENTONVILLE    CLOUDY    45  37  76 S9        29.82F
ROGERS         CLOUDY    43  38  82 SE8       29.82F
SILOAM SPGS    CLOUDY    45  36  70 S7        29.83S
HIGHFILL       CLOUDY    44  40  85 S9        29.81F
$$

ARZ004-005-016-220500-
NORTH CENTRAL ARKANSAS

CITY           SKY/WX    TMP DP  RH WIND       PRES   REMARKS
BATESVILLE     CLOUDY    45  37  76 E5        29.92F
FLIPPIN        CLOUDY    43  36  75 E8        29.88F
MTN HOME       CLOUDY    42  36  79 SE9       29.88F
$$

ARZ040-041-220500-
WEST CENTRAL ARKANSAS

CITY           SKY/WX    TMP DP  RH WIND       PRES   REMARKS
MENA           CLOUDY    52  45  76 SW3       29.83S
MOUNT IDA      CLOUDY    51  41  68 SE5       29.81F
$$

ARZ009-017-025-026-028-220500-
NORTHEAST ARKANSAS

CITY           SKY/WX    TMP DP  RH WIND       PRES   REMARKS
CORNING        CLOUDY    45  37  76 E7        29.95F
JONESBORO      CLOUDY    44  37  76 E7        29.93F
NEWPORT        MOCLDY    42  38  86 E5        29.94F
WALNUT RIDGE   CLOUDY    45  36  70 E5        29.93F
BLYTHEVILLE    PTCLDY    42  34  73 SE10      29.95F
$$

ARZ022-023-033-042-044-220500-
CENTRAL ARKANSAS

CITY           SKY/WX    TMP DP  RH WIND       PRES   REMARKS
LITTLE ROCK    PTCLDY    46  36  68 SE5       29.91F
N LITTLE ROCK  PTCLDY    46  39  77 SE8       29.91F
JACKSONVILLE   CLOUDY    48  37  66 E6        29.90F
SEARCY         CLOUDY    47  37  68 E3        29.93F
HOT SPRINGS    CLOUDY    49  40  71 E6        29.87F
RUSSELLVILLE   CLOUDY    49  38  65 E6        29.86F
CLINTON        CLOUDY    46  39  76 CALM      29.92F
$$

ARZ036-220500-
EAST ARKANSAS

CITY           SKY/WX    TMP DP  RH WIND       PRES   REMARKS
WEST MEMPHIS   PTCLDY    43  39  86 SE10      29.94F
$$

ARZ050-053-066-070-073-220500-
SOUTHWEST ARKANSAS

CITY           SKY/WX    TMP DP  RH WIND       PRES   REMARKS
ARKADELPHIA    FAIR      42  42 100 CALM      29.88F
CAMDEN         CLEAR     41  39  93 MISG      29.90F
TEXARKANA      CLOUDY    48  45  89 S8        29.86F
EL DORADO      CLEAR     43  40  89 CALM      29.91F
DE QUEEN       CLOUDY    50  45  83 CALM      29.84F
$$

ARZ056-057-069-220500-
SOUTHEAST ARKANSAS

CITY           SKY/WX    TMP DP  RH WIND       PRES   REMARKS
PINE BLUFF     PTCLDY    42  38  85 E5        29.91F
STUTTGART      MOCLDY    45  36  70 SE5       29.92F
MONTICELLO     PTCLDY    41  37  86 CALM      29.92F

$$




USA.gov is the U.S. government's official web portal to all federal, state and local government web resources and services.